Location: Newark
(42.9277°N, 71.8621°W)
Time: 05:33:03
(UTC+00:00)

Explorer 7 - All Passes

Search period start: 28 May 2020 00:00
Search period end: 07 June 2020 00:00
Orbit: 485 x 679 km, 50.3° (Epoch: 27 May)

Date Brightness Start Highest point End Pass type
(mag) Time Alt. Az. Time Alt. Az. Time Alt. Az.
28 May - 02:57:14 10° S 03:00:17 17° SE 03:03:15 10° E visible
28 May - 04:35:38 10° SW 04:40:23 78° SSE 04:44:54 10° ENE visible
28 May - 06:16:56 10° W 06:21:15 38° NNW 06:25:20 10° NE visible
28 May - 07:58:36 10° WNW 08:02:34 31° N 08:06:20 10° ENE visible
28 May - 09:39:24 10° WNW 09:43:39 68° NNE 09:47:37 10° ESE daylight
28 May - 11:20:33 10° W 11:23:49 23° SW 11:26:58 10° S daylight
29 May - 03:00:54 10° SSW 03:04:53 26° SE 03:08:45 10° E visible
29 May - 04:40:27 10° WSW 04:45:12 75° NNW 04:49:43 10° ENE visible
29 May - 06:22:04 10° WNW 06:26:15 33° N 06:30:13 10° ENE visible
29 May - 08:03:31 10° NW 08:07:36 35° NNE 08:11:26 10° E visible
29 May - 09:44:13 10° WNW 09:48:28 83° SW 09:52:27 10° SE daylight
29 May - 11:26:09 10° W 11:28:22 14° SW 11:30:33 10° SSW daylight
30 May - 03:05:03 10° SSW 03:09:32 40° SE 03:13:52 10° ENE visible
30 May - 04:45:25 10° WSW 04:50:05 56° NNW 04:54:31 10° NE visible
30 May - 06:27:11 10° WNW 06:31:17 31° N 06:35:10 10° ENE visible
30 May - 08:08:22 10° NW 08:12:35 42° NNE 08:16:32 10° E visible
30 May - 09:49:06 10° WNW 09:53:14 54° SW 09:57:07 10° SE daylight
31 May - 01:32:24 10° SSE 01:34:19 12° SE 01:36:14 10° ESE visible
31 May - 03:09:29 10° SW 03:14:15 60° SE 03:18:49 10° ENE visible
31 May - 04:50:29 10° W 04:55:01 44° NNW 04:59:20 10° NE visible
31 May - 06:32:14 10° WNW 06:36:19 31° N 06:40:12 10° ENE visible
31 May - 08:13:12 10° NW 08:17:32 55° NNE 08:21:35 10° ESE visible
31 May - 09:54:06 10° WNW 09:57:55 33° SW 10:01:32 10° SSE daylight
01 Jun - 01:35:23 10° S 01:38:52 20° SE 01:42:17 10° E visible
01 Jun - 03:14:11 10° WSW 03:19:02 87° SE 03:23:41 10° ENE visible
01 Jun - 04:55:36 10° W 04:59:59 37° NNW 05:04:11 10° NE visible
01 Jun - 06:37:12 10° WNW 06:41:22 33° N 06:45:17 10° ENE visible
01 Jun - 08:18:00 10° WNW 08:22:24 76° NNE 08:26:31 10° ESE visible
01 Jun - 09:59:19 10° W 10:02:31 21° SW 10:05:34 10° S daylight
02 Jun - 01:39:13 10° SSW 01:43:28 30° SE 01:47:37 10° ENE visible
02 Jun - 03:19:03 10° WSW 03:23:52 69° NNW 03:28:30 10° ENE visible
02 Jun - 05:00:43 10° WNW 05:05:00 33° N 05:09:05 10° ENE visible
02 Jun - 06:42:06 10° NW 06:46:22 38° NNE 06:50:23 10° E visible
02 Jun - 08:22:50 10° WNW 08:27:13 74° SW 08:31:19 10° SE visible
02 Jun - 10:05:08 10° W 10:07:03 13° SW 10:08:55 10° SSW daylight
03 Jun - 01:43:29 10° SSW 01:48:08 46° SE 01:52:40 10° ENE visible
03 Jun - 03:24:03 10° W 03:28:46 52° NNW 03:33:18 10° NE visible
03 Jun - 05:05:49 10° WNW 05:10:02 32° N 05:14:04 10° ENE visible
03 Jun - 06:46:57 10° NW 06:51:21 46° NNE 06:55:28 10° E visible
03 Jun - 08:27:44 10° WNW 08:31:57 48° SW 08:35:54 10° SE visible
04 Jun - 00:10:15 10° SSE 00:12:53 15° SE 00:15:30 10° E daylight
04 Jun - 01:48:01 10° SW 01:52:52 68° SE 01:57:35 10° ENE visible
04 Jun - 03:29:07 10° W 03:33:43 42° NNW 03:38:07 10° NE visible
04 Jun - 05:10:50 10° WNW 05:15:05 32° N 05:19:07 10° ENE visible
04 Jun - 06:51:46 10° WNW 06:56:16 61° NNE 07:00:29 10° ESE visible
04 Jun - 08:32:46 10° WNW 08:36:37 30° SW 08:40:13 10° SSE visible
05 Jun - 00:13:37 10° S 00:17:26 23° SE 00:21:12 10° E daylight
05 Jun - 01:52:45 10° WSW 01:57:40 85° NNW 02:02:26 10° ENE visible
05 Jun - 03:34:15 10° WNW 03:38:43 36° N 03:43:00 10° ENE visible
05 Jun - 05:15:48 10° WNW 05:20:06 35° N 05:24:12 10° ENE visible
05 Jun - 06:56:34 10° WNW 07:01:08 85° NNE 07:05:23 10° ESE visible
05 Jun - 08:38:05 10° W 08:41:11 19° SW 08:44:09 10° S daylight
06 Jun - 00:17:37 10° SSW 00:22:02 35° SE 00:26:24 10° ENE daylight
06 Jun - 01:57:40 10° WSW 02:02:31 64° NNW 02:07:14 10° ENE visible
06 Jun - 03:39:21 10° WNW 03:43:44 33° N 03:47:56 10° ENE visible
06 Jun - 05:20:41 10° NW 05:25:07 41° NNE 05:29:18 10° E visible
06 Jun - 07:01:25 10° WNW 07:05:56 66° SW 07:10:07 10° SE visible
06 Jun - 08:44:12 10° WSW 08:45:41 12° SW 08:47:08 10° SSW daylight
06 Jun - 22:46:34 10° SE 22:46:56 10° SE 22:47:17 10° ESE daylight
